Snowfall_Accumulation
0.8 0.9 1.2 1.2 1.3 1.5 2.1 3.3 5.6 4.5 1.2 0.2 0.3 0.1 0.2 0.1 0.1 0.3 0.2 0.1 0.4 0.6 0.6 0.5 0.3 0.2 0.3 0.3 0.2 0.1 0.1 0.0 0.0 0.0 0.0 0.0 0.0 0.0
1.0 1.2 1.4 1.2 1.2 1.4 1.8 2.3 3.6 5.6 3.8 0.5 0.3 0.1 0.1 0.1 0.1 0.3 0.2 0.2 0.3 0.3 0.4 0.4 0.3 0.1 0.2 0.2 0.2 0.1 0.0 0.1 0.0 0.0 0.0 0.0 0.0 0.0
1.3 1.6 1.5 1.5 1.6 1.6 1.8 2.2 2.5 3.8 4.7 0.9 0.3 0.1 0.2 0.3 0.2 0.1 0.1 0.1 0.1 0.1 0.2 0.3 0.3 0.2 0.2 0.1 0.2 0.1 0.1 0.0 0.0 0.0 0.0 0.0 0.0 0.0
2.1 1.8 1.6 1.6 1.8 1.8 2.1 2.2 2.0 2.3 3.9 2.8 0.6 0.3 0.3 0.4 0.3 0.2 0.1 0.1 0.1 0.1 0.1 0.2 0.2 0.3 0.3 0.4 0.3 0.2 0.1 0.1 0.1 0.1 0.1 0.0 0.0 0.0
2.4 2.7 2.3 2.3 2.3 2.0 2.4 2.3 2.1 2.1 2.8 3.7 1.8 0.6 0.5 0.4 0.4 0.2 0.1 0.1 0.0 0.0 0.1 0.1 0.2 0.2 0.3 0.4 0.4 0.3 0.2 0.2 0.2 0.2 0.2 0.0 0.0 0.0
3.4 3.3 3.3 4.0 3.5 3.2 3.8 3.6 3.3 3.5 3.3 3.8 2.8 1.7 1.3 0.7 0.7 1.0 0.7 0.5 0.3 0.0 0.1 0.1 0.1 0.2 0.2 0.2 0.3 0.4 0.4 0.4 0.6 0.5 0.4 0.3 0.3 0.2
4.2 3.7 3.3 3.0 3.8 5.0 6.5 6.7 5.8 5.9 5.7 5.6 4.7 3.4 2.5 2.1 2.0 1.6 1.9 1.1 0.8 0.5 0.4 0.3 0.3 0.2 0.1 0.2 0.2 0.2 0.4 0.5 0.6 0.7 0.6 0.5 0.5 0.5
5.0 3.9 3.3 3.7 3.5 3.1 4.1 5.2 5.4 8.0 9.0 8.6 7.5 6.3 4.1 2.8 2.2 2.7 3.3 3.7 2.9 0.9 1.0 0.9 0.6 0.6 0.4 0.3 0.3 0.4 0.6 0.8 0.8 0.8 0.9 0.7 0.7 0.7
3.8 3.9 3.9 3.5 3.8 4.1 4.7 3.5 3.6 3.9 5.6 8.5 9.7 7.4 5.6 3.8 4.1 5.3 5.1 5.6 4.4 2.1 2.7 2.6 1.1 1.2 0.7 0.3 0.4 0.5 0.7 0.9 1.1 1.2 0.9 0.9 1.0 1.0
3.4 3.7 3.7 3.8 4.0 5.4 6.1 5.6 4.6 4.3 4.8 6.5 8.9 8.0 6.6 5.8 6.6 7.9 7.8 7.2 4.4 2.4 2.1 5.0 2.1 1.5 1.1 0.6 0.4 0.4 0.6 0.8 1.1 1.2 1.3 1.1 1.2 1.3
2.8 3.5 3.9 3.6 4.0 5.6 6.9 7.0 5.3 4.4 3.5 4.1 5.7 6.7 6.0 5.7 6.5 8.3 10.5 11.3 8.8 4.1 2.5 4.9 3.0 2.3 1.4 1.0 0.6 0.5 0.5 0.9 0.9 1.2 1.5 1.5 1.6 1.4
2.6 3.0 4.5 4.8 4.7 5.0 6.3 7.2 7.4 5.1 4.1 3.8 4.1 4.1 4.9 5.8 6.4 7.6 9.3 12.1 12.1 9.1 3.8 5.4 4.9 5.1 5.5 1.9 1.1 0.8 0.6 0.6 0.7 1.0 1.1 1.5 1.7 1.8
3.7 3.5 3.9 4.5 4.5 4.5 5.1 6.4 8.4 6.5 5.3 5.1 4.6 4.3 4.7 5.6 6.5 8.6 8.7 12.0 14.1 13.6 8.0 8.7 10.1 8.5 10.2 6.9 2.4 1.5 1.0 1.0 0.8 0.7 0.8 1.0 1.4 1.9
5.6 4.2 4.1 4.3 4.3 4.0 4.1 4.3 4.8 5.0 5.6 5.5 5.2 4.7 5.2 6.3 7.1 8.6 10.4 10.9 11.5 11.1 8.8 9.9 15.3 13.1 14.2 12.3 7.3 4.4 2.7 1.7 1.4 1.4 1.2 0.8 1.0 1.2
5.5 5.4 4.9 4.0 3.4 3.5 2.7 3.2 4.0 4.9 6.1 6.4 5.7 4.8 4.7 5.5 6.1 7.0 8.5 10.4 10.4 8.9 7.2 6.8 10.5 11.5 13.9 14.3 10.3 6.5 5.1 3.4 2.3 1.9 2.0 1.6 1.8 1.5
5.5 5.7 5.1 3.7 3.4 3.2 3.1 3.3 3.9 5.0 6.0 6.6 5.5 4.3 3.9 4.6 5.7 7.1 8.9 10.3 11.8 11.2 9.3 7.5 9.0 11.3 14.4 11.1 10.6 9.4 6.1 6.1 3.8 2.9 2.5 2.1 1.8 1.9
8.3 7.7 6.8 5.5 4.8 4.4 4.2 3.7 3.6 4.2 5.6 6.1 5.4 5.6 5.5 6.0 6.6 6.8 8.7 10.6 12.5 12.4 13.0 12.3 12.0 12.3 13.0 12.3 12.6 9.6 7.8 6.8 5.4 4.6 4.5 4.4 2.7 2.2
8.0 9.2 7.8 6.4 6.1 6.2 6.1 5.6 4.6 4.5 5.0 5.9 6.6 7.0 7.1 7.2 7.8 7.4 8.6 10.7 12.4 12.5 13.0 14.1 15.3 16.3 15.9 15.6 13.6 11.1 8.1 7.7 6.5 5.6 5.1 5.9 6.2 3.4
6.5 6.9 6.4 6.2 6.3 6.2 6.2 6.0 5.5 4.8 5.4 6.6 7.5 7.1 7.5 7.7 8.0 8.2 8.5 10.0 11.4 12.0 12.2 13.6 15.9 19.0 19.8 19.9 16.4 10.6 10.2 9.3 7.8 7.2 5.8 6.1 6.7 5.0
5.2 5.7 6.2 6.3 6.2 6.4 6.4 6.1 5.7 5.2 6.0 6.5 6.9 7.2 7.8 8.4 9.0 8.6 8.9 10.6 11.6 11.8 12.3 12.8 15.5 18.5 21.2 19.3 17.8 13.9 8.9 9.4 9.2 8.3 6.8 5.6 5.2 3.8
5.5 5.8 5.8 6.7 6.6 6.7 6.8 7.0 6.5 6.3 5.8 6.3 6.6 7.0 7.4 8.4 8.9 8.1 8.6 9.7 11.4 12.3 12.7 12.6 13.2 14.6 17.2 17.3 17.9 15.9 13.6 8.9 7.2 8.5 8.4 8.8 8.1 7.0
5.2 5.5 5.5 5.9 6.3 6.5 6.9 7.1 6.7 6.3 6.1 6.3 6.5 6.5 7.0 7.9 8.5 8.5 9.0 10.1 10.5 11.2 11.8 11.1 11.5 13.5 16.6 19.9 17.8 15.2 14.1 12.0 9.9 7.1 6.3 7.1 11.1 13.4
5.9 6.0 5.8 5.7 6.0 6.3 6.6 6.9 6.7 6.4 6.1 6.5 6.8 6.5 6.9 7.6 7.7 8.2 8.7 9.2 10.1 10.4 11.2 11.8 11.8 13.4 16.2 17.2 17.7 16.4 14.7 12.5 11.3 11.2 10.9 6.7 4.6 4.5